Colby, KS

8:20 PM CST on January 16, 2018 (GMT -0600)
Shaltz

Weather History for KCBK - August, 2013

Change the Weather History Date:

Saturday, August 24, 2013

  Actual Average (KGLD) Record (KGLD)
Temperature  
Mean Temperature 80 °F -  
Max Temperature 96 °F 86 °F 105 °F (1936)
Min Temperature 64 °F 58 °F 43 °F (1928)
Cooling Degree Days 15    
Growing Degree Days 30 (Base 50)    
Moisture  
Dew Point 60 °F    
Average Humidity 52    
Maximum Humidity 88    
Minimum Humidity 27    
Precipitation  
Precipitation 0.00 in - - ()
Sea Level Pressure  
Sea Level Pressure 30.03 in    
Wind  
Wind Speed 16 mph (South)    
Max Wind Speed 29 mph    
Max Gust Speed 43 mph    
Visibility 10 miles    
Events      
Averages and records for this station are not official NWS values.
T = Trace of Precipitation, MM = Missing Value Source: NWS Daily Summary

Daily Weather History Graph

Daily Weather History Graph

Search for Another Location

Airport or City:

Trip Planner

Search our weather history database for the weather conditions in past years. The results will help you decide how hot, cold, wet, or windy it might be!

Date:

Astronomy

Aug. 24, 2013 Rise Set
Actual Time 7:05 AM CDT 8:26 PM CDT
Civil Twilight 6:37 AM CDT 8:54 PM CDT
Nautical Twilight 6:03 AM CDT 9:28 PM CDT
Astronomical Twilight 5:28 AM CDT 10:03 PM CDT
Moon 10:23 PM CDT (8/24) 11:05 AM CDT (8/24)
Length of Visible Light 14h 17m
Length of Day
13h 21m
Waning Gibbous, 84% of the Moon is Illuminated
Aug 24
Waning Gibbous
Aug 28
Last Quarter
Sep 5
New
Sep 12
First Quarter
Sep 19
Full

Hourly Weather History & Observations

Time (CDT) Temp. Heat Index Dew Point Humidity Pressure Visibility Wind Dir Wind Speed Gust Speed Precip Events Conditions
12:15 AM 75.2 °F - 60.8 °F 61% 30.01 in 10.0 mi South 17.3 mph - N/A   Clear
12:35 AM 75.2 °F - 60.8 °F 61% 30.01 in 10.0 mi South 17.3 mph 23.0 mph N/A   Clear
12:55 AM 75.2 °F - 60.8 °F 61% 30.01 in 10.0 mi South 16.1 mph 24.2 mph N/A   Clear
1:15 AM 75.2 °F - 60.8 °F 61% 30.02 in 10.0 mi South 16.1 mph - N/A   Clear
1:35 AM 75.2 °F - 60.8 °F 61% 30.02 in 10.0 mi South 16.1 mph 20.7 mph N/A   Clear
1:55 AM 73.4 °F - 60.8 °F 65% 30.02 in 10.0 mi South 15.0 mph 18.4 mph N/A   Clear
2:15 AM 73.4 °F - 60.8 °F 65% 30.02 in 10.0 mi South 11.5 mph - N/A   Clear
2:35 AM 73.4 °F - 60.8 °F 65% 30.02 in 10.0 mi South 10.4 mph 18.4 mph N/A   Clear
2:55 AM 73.4 °F - 60.8 °F 65% 30.02 in 10.0 mi South 11.5 mph - N/A   Clear
3:15 AM 71.6 °F - 60.8 °F 69% 30.02 in 10.0 mi South 12.7 mph 17.3 mph N/A   Clear
3:35 AM 71.6 °F - 60.8 °F 69% 30.01 in 10.0 mi South 11.5 mph - N/A   Clear
3:55 AM 69.8 °F - 60.8 °F 73% 30.01 in 10.0 mi South 9.2 mph - N/A   Clear
4:15 AM 69.8 °F - 60.8 °F 73% 30.02 in 10.0 mi South 8.1 mph - N/A   Clear
4:35 AM 68.0 °F - 60.8 °F 78% 30.02 in 10.0 mi South 9.2 mph - N/A   Clear
4:55 AM 68.0 °F - 60.8 °F 78% 30.02 in 10.0 mi South 10.4 mph - N/A   Clear
5:15 AM 68.0 °F - 60.8 °F 78% 30.02 in 10.0 mi South 8.1 mph - N/A   Clear
5:35 AM 68.0 °F - 60.8 °F 78% 30.03 in 10.0 mi South 9.2 mph - N/A   Clear
5:55 AM 66.2 °F - 60.8 °F 83% 30.03 in 10.0 mi SSE 8.1 mph - N/A   Clear
6:15 AM 66.2 °F - 60.8 °F 83% 30.03 in 10.0 mi South 6.9 mph - N/A   Clear
6:35 AM 66.2 °F - 60.8 °F 83% 30.03 in 10.0 mi SSE 8.1 mph - N/A   Clear
6:55 AM 64.4 °F - 60.8 °F 88% 30.04 in 10.0 mi South 8.1 mph - N/A   Clear
7:15 AM 64.4 °F - 60.8 °F 88% 30.04 in 10.0 mi South 6.9 mph - N/A   Clear
7:35 AM 64.4 °F - 60.8 °F 88% 30.04 in 10.0 mi South 8.1 mph - N/A   Clear
7:55 AM 68.0 °F - 60.8 °F 78% 30.05 in 10.0 mi South 8.1 mph - N/A   Clear
8:15 AM 68.0 °F - 60.8 °F 78% 30.05 in 10.0 mi South 8.1 mph - N/A   Clear
8:35 AM 71.6 °F - 60.8 °F 69% 30.05 in 10.0 mi South 9.2 mph - N/A   Clear
8:55 AM 73.4 °F - 62.6 °F 69% 30.05 in 10.0 mi South 11.5 mph - N/A   Clear
9:15 AM 75.2 °F - 62.6 °F 65% 30.05 in 10.0 mi South 12.7 mph - N/A   Clear
9:35 AM 77.0 °F - 62.6 °F 61% 30.05 in 10.0 mi SSE 15.0 mph - N/A   Clear
9:55 AM 78.8 °F - 62.6 °F 57% 30.05 in 10.0 mi SSE 13.8 mph - N/A   Clear
10:15 AM 82.4 °F 82.9 °F 60.8 °F 48% 30.05 in 10.0 mi South 16.1 mph 23.0 mph N/A   Clear
10:35 AM 84.2 °F 84.4 °F 60.8 °F 45% 30.06 in 10.0 mi South 17.3 mph 24.2 mph N/A   Clear
10:55 AM 86.0 °F 86.1 °F 60.8 °F 43% 30.05 in 10.0 mi South 18.4 mph 26.5 mph N/A   Clear
11:15 AM 87.8 °F 87.6 °F 60.8 °F 40% 30.05 in 10.0 mi South 18.4 mph 24.2 mph N/A   Clear
11:35 AM 89.6 °F 89.5 °F 60.8 °F 38% 30.05 in 10.0 mi South 23.0 mph 33.4 mph N/A   Clear
11:55 AM 89.6 °F 89.5 °F 60.8 °F 38% 30.05 in 10.0 mi South 19.6 mph 26.5 mph N/A   Clear
12:15 PM 91.4 °F 91.4 °F 60.8 °F 36% 30.04 in 10.0 mi South 17.3 mph 32.2 mph N/A   Clear
12:35 PM 91.4 °F 90.7 °F 59.0 °F 34% 30.05 in 10.0 mi South 25.3 mph 32.2 mph N/A   Clear
12:55 PM 93.2 °F 92.6 °F 59.0 °F 32% 30.04 in 10.0 mi South 27.6 mph 35.7 mph N/A   Clear
1:15 PM 93.2 °F 92.6 °F 59.0 °F 32% 30.04 in 10.0 mi South 25.3 mph 32.2 mph N/A   Clear
1:35 PM 95.0 °F 94.4 °F 59.0 °F 30% 30.03 in 10.0 mi South 25.3 mph 34.5 mph N/A   Clear
1:55 PM 95.0 °F 94.4 °F 59.0 °F 30% 30.02 in 10.0 mi South 23.0 mph 33.4 mph N/A   Clear
2:15 PM 95.0 °F 94.4 °F 59.0 °F 30% 30.02 in 10.0 mi South 27.6 mph 32.2 mph N/A   Clear
2:35 PM 95.0 °F 94.4 °F 59.0 °F 30% 30.02 in 10.0 mi South 23.0 mph 39.1 mph N/A   Clear
2:55 PM 95.0 °F 94.4 °F 59.0 °F 30% 30.02 in 10.0 mi South 24.2 mph 42.6 mph N/A   Clear
3:15 PM 95.0 °F 93.7 °F 57.2 °F 28% 30.02 in 10.0 mi South 27.6 mph 35.7 mph N/A   Scattered Clouds
3:35 PM 96.8 °F 96.2 °F 59.0 °F 28% 30.01 in 10.0 mi South 25.3 mph 33.4 mph N/A   Clear
3:55 PM 96.8 °F 95.8 °F 57.2 °F 27% 30.00 in 10.0 mi SSW 20.7 mph 33.4 mph N/A   Clear
4:15 PM 96.8 °F 96.2 °F 59.0 °F 28% 30.00 in 10.0 mi South 24.2 mph 36.8 mph N/A   Scattered Clouds
4:35 PM 95.0 °F 94.4 °F 59.0 °F 30% 30.00 in 10.0 mi South 28.8 mph 35.7 mph N/A   Scattered Clouds
4:55 PM 95.0 °F 94.4 °F 59.0 °F 30% 29.99 in 10.0 mi South 23.0 mph 33.4 mph N/A   Scattered Clouds
5:15 PM 95.0 °F 94.4 °F 59.0 °F 30% 30.00 in 10.0 mi South 21.9 mph 36.8 mph N/A   Scattered Clouds
5:35 PM 95.0 °F 94.4 °F 59.0 °F 30% 30.00 in 10.0 mi South 25.3 mph 32.2 mph N/A   Clear
5:55 PM 95.0 °F 95.2 °F 60.8 °F 32% 30.00 in 10.0 mi South 25.3 mph 32.2 mph N/A   Clear
6:15 PM 93.2 °F 93.3 °F 60.8 °F 34% 30.00 in 10.0 mi South 21.9 mph 31.1 mph N/A   Clear
6:35 PM 93.2 °F 93.3 °F 60.8 °F 34% 30.00 in 10.0 mi South 20.7 mph 28.8 mph N/A   Clear
6:55 PM 91.4 °F 91.4 °F 60.8 °F 36% 30.00 in 10.0 mi South 21.9 mph - N/A   Clear
7:15 PM 91.4 °F 91.4 °F 60.8 °F 36% 30.00 in 10.0 mi SSE 24.2 mph 29.9 mph N/A   Clear
7:35 PM 89.6 °F 88.9 °F 59.0 °F 36% 30.00 in 10.0 mi SSE 19.6 mph 33.4 mph N/A   Clear
7:55 PM 89.6 °F 88.9 °F 59.0 °F 36% 30.00 in 10.0 mi SSE 19.6 mph 26.5 mph N/A   Clear
8:15 PM 87.8 °F 87.1 °F 59.0 °F 38% 30.01 in 10.0 mi SSE 17.3 mph 23.0 mph N/A   Clear
8:35 PM 86.0 °F 85.4 °F 59.0 °F 40% 30.02 in 10.0 mi SSE 18.4 mph 23.0 mph N/A   Clear
8:55 PM 84.2 °F 83.8 °F 59.0 °F 42% 30.02 in 10.0 mi SSE 16.1 mph 20.7 mph N/A   Clear
9:15 PM 82.4 °F 82.9 °F 60.8 °F 48% 30.04 in 10.0 mi SSE 17.3 mph - N/A   Clear
9:35 PM 82.4 °F 82.9 °F 60.8 °F 48% 30.05 in 10.0 mi SSE 16.1 mph 21.9 mph N/A   Clear
9:55 PM 82.4 °F 82.9 °F 60.8 °F 48% 30.06 in 10.0 mi SSE 19.6 mph - N/A   Clear
10:15 PM 82.4 °F 83.4 °F 62.6 °F 51% 30.06 in 10.0 mi SSE 20.7 mph 27.6 mph N/A   Clear
10:35 PM 80.6 °F 81.8 °F 62.6 °F 54% 30.06 in 10.0 mi SSE 18.4 mph 23.0 mph N/A   Clear
10:55 PM 80.6 °F 81.8 °F 62.6 °F 54% 30.07 in 10.0 mi SSE 21.9 mph 26.5 mph N/A   Clear
11:15 PM 80.6 °F 81.8 °F 62.6 °F 54% 30.07 in 10.0 mi SSE 17.3 mph 24.2 mph N/A   Clear
11:35 PM 78.8 °F - 62.6 °F 57% 30.08 in 10.0 mi SSE 16.1 mph - N/A   Clear
11:55 PM 78.8 °F - 62.6 °F 57% 30.08 in 10.0 mi SSE 15.0 mph - N/A   Clear